N5CSU Weather Reports


time (UTC)temp
C
wind
direction
speed
KPH
gust
KPH
rain 1hr
cm
rain 24hr
cm
rain mn
cm
humidity
%
barometer
mb
20260509053613 21 170 0.0 0.0 0.00 0.00 0.00 89 1011.8
20260509053110 21 170 0.0 0.0 0.00 0.00 0.00 89 1011.5
20260509052608 21 180 0.0 0.0 0.00 0.00 0.00 89 1011.1
20260509052105 21 180 0.0 0.0 0.00 0.00 0.00 88 1010.6
20260509051603 21 180 0.0 0.0 0.00 0.00 0.00 88 1010.3
20260509051100 21 169 0.0 0.0 0.00 0.00 0.00 87 1010.4
20260509050556 21 191 0.0 0.0 0.00 0.00 0.00 87 1010.2
20260509050053 22 174 0.0 0.0 0.00 0.00 0.00 87 1010.3
20260509045551 22 172 0.0 0.0 0.00 0.00 0.00 87 1010.5
20260509045047 22 172 0.0 0.0 0.00 0.00 0.00 86 1010.6
20260509044545 21 193 0.0 0.0 0.00 0.00 0.00 87 1010.2
20260509044042 21 191 0.0 0.0 0.00 0.00 0.00 87 1010.2
20260509043538 21 195 0.0 0.0 0.00 0.00 0.00 87 1010.1
20260509043034 21 201 0.0 0.0 0.00 0.00 0.00 87 1010.4
20260509042530 21 177 0.0 0.0 0.00 0.00 0.00 87 1010.5
20260509042026 21 177 0.0 0.0 0.00 0.00 0.00 86 1010.5
20260509041523 22 177 0.0 0.0 0.00 0.00 0.00 86 1010.7
20260509041021 22 177 0.0 0.0 0.00 0.00 0.00 86 1011.0
20260509040519 22 177 0.0 0.0 0.00 0.00 0.00 86 1011.0
20260509040016 22 173 0.0 0.0 0.00 0.00 0.00 85 1011.0
20260509035513 22 171 0.0 0.0 0.00 0.00 0.00 85 1010.9
20260509035009 22 171 0.0 0.0 0.00 0.00 0.00 85 1010.7
20260509034507 22 169 0.0 0.0 0.00 0.00 0.00 85 1010.5
20260509033958 22 149 0.0 0.0 0.00 0.00 0.00 85 1010.1
20260509033455 22 201 0.0 0.0 0.00 0.00 0.00 85 1010.0
20260509032952 22 190 0.0 0.0 0.00 0.00 0.00 84 1010.3
20260509032449 22 190 0.0 0.0 0.00 0.00 0.00 84 1010.3
20260509031947 22 191 0.0 0.0 0.00 0.00 0.00 84 1010.2
20260509031444 22 191 0.0 0.0 0.00 0.00 0.00 84 1010.3
20260509030941 22 200 0.0 0.0 0.00 0.00 0.00 84 1010.1
20260509030439 22 189 0.0 0.0 0.00 0.00 0.00 84 1010.1
20260509025936 22 189 0.0 0.0 0.00 0.00 0.00 84 1010.0
20260509025432 21 188 0.0 0.0 0.00 0.00 0.00 84 1009.9
20260509024927 21 180 0.0 0.0 0.00 0.00 0.00 84 1009.9
20260509024423 21 192 0.0 0.0 0.00 0.00 0.00 84 1009.5
20260509023920 21 191 0.0 0.0 0.00 0.00 0.00 84 1009.4
20260509023418 21 197 0.0 0.0 0.00 0.00 0.00 83 1009.4
20260509022914 21 197 0.0 0.0 0.00 0.00 0.00 83 1009.5
20260509022411 22 198 0.0 0.0 0.00 0.00 0.00 83 1009.4
20260509021909 22 195 0.0 0.0 0.00 0.00 0.00 83 1009.5
20260509021405 22 181 0.0 0.0 0.00 0.00 0.00 83 1009.2
20260509020903 22 194 0.0 0.0 0.00 0.00 0.00 82 1009.2
20260509020401 22 194 0.0 0.0 0.00 0.00 0.00 82 1009.2
20260509015857 22 194 0.0 0.0 0.00 0.00 0.00 82 1009.1
20260509015356 22 194 0.0 0.0 0.00 0.00 0.00 82 1009.3
20260509014852 22 196 0.0 0.0 0.00 0.00 0.00 82 1009.5
20260509014349 22 197 0.0 0.0 0.00 0.00 0.00 82 1009.3
20260509013846 22 195 0.0 0.0 0.00 0.00 0.00 82 1009.3
20260509013342 22 196 0.0 0.0 0.00 0.00 0.00 81 1009.2
20260509012838 22 195 0.0 0.0 0.00 0.00 0.00 81 1009.3
20260509012335 22 195 0.0 0.0 0.00 0.00 0.00 81 1009.3
20260509011833 22 195 0.0 0.0 0.00 0.00 0.00 80 1009.2
20260509011330 22 195 0.0 0.0 0.00 0.00 0.00 80 1009.1
20260509010827 22 188 0.0 0.0 0.00 0.00 0.00 80 1009.0
20260509010324 22 191 0.0 0.0 0.00 0.00 0.00 80 1008.7
20260509005821 22 197 0.0 0.0 0.00 0.00 0.00 80 1008.4
20260509005319 22 189 0.0 0.0 0.00 0.00 0.00 80 1008.5
20260509004814 22 193 0.0 0.0 0.00 0.00 0.00 80 1008.5
20260509004310 22 187 0.0 0.0 0.00 0.00 0.00 80 1008.3
20260509003809 22 196 0.0 0.0 0.00 0.00 0.00 79 1008.7
20260509003306 22 187 0.0 0.0 0.00 0.00 0.00 79 1008.7
20260509002803 22 187 0.0 0.0 0.00 0.00 0.00 79 1008.7
20260509002300 22 192 0.0 0.0 0.00 0.00 0.00 79 1008.5
20260509001758 22 191 0.0 0.0 0.00 0.00 0.00 78 1008.8
20260509001254 22 179 0.0 0.0 0.00 0.00 0.00 78 1008.7
20260509000752 22 182 0.0 0.0 0.00 0.00 0.00 78 1008.7
20260509000249 22 194 0.0 0.0 0.00 0.00 0.00 78 1008.8
20260508235746 22 189 0.0 0.0 0.00 0.00 0.00 78 1008.7
20260508235242 22 203 0.0 0.0 0.00 0.00 0.00 77 1008.9
20260508234740 22 197 0.0 0.0 0.00 0.00 0.00 77 1009.0
20260508234235 22 195 0.0 0.0 0.00 0.00 0.00 77 1009.1
20260508233730 22 192 0.0 0.0 0.00 0.00 0.00 77 1009.0
20260508233227 22 181 0.0 0.0 0.00 0.00 0.00 77 1009.1
20260508232724 23 186 0.0 0.0 0.00 0.00 0.00 76 1009.1
20260508232221 23 185 0.0 0.0 0.00 0.00 0.00 76 1009.0
20260508231719 23 183 0.0 0.0 0.00 0.00 0.00 75 1009.0
20260508231215 23 193 0.0 0.0 0.00 0.00 0.00 75 1009.1
20260508230713 23 173 0.0 0.0 0.00 0.00 0.00 76 1008.8
20260508230208 23 178 0.0 1.6 0.00 0.00 0.00 75 1009.1
20260508225707 23 183 0.0 0.0 0.00 0.00 0.00 74 1009.2
20260508225202 23 195 0.0 0.0 0.00 0.00 0.00 74 1009.0
20260508224701 23 210 0.0 0.0 0.00 0.00 0.00 73 1009.1
20260508224158 23 193 0.0 0.0 0.00 0.00 0.00 74 1009.3
20260508223655 23 190 0.0 0.0 0.00 0.00 0.00 74 1009.1
20260508223152 23 185 0.0 0.0 0.00 0.00 0.00 74 1009.3
20260508222650 23 166 0.0 0.0 0.00 0.00 0.00 73 1009.2
20260508222147 23 199 0.0 0.0 0.00 0.00 0.00 73 1009.4
20260508221643 23 192 0.0 0.0 0.00 0.00 0.00 73 1009.2
20260508221139 23 239 0.0 0.0 0.00 0.00 0.00 74 1009.1
20260508220636 23 181 0.0 0.0 0.00 0.00 0.00 74 1009.2
20260508220132 23 200 0.0 0.0 0.00 0.00 0.00 74 1009.2
20260508215629 23 193 0.0 0.0 0.00 0.00 0.00 73 1009.3
20260508215126 23 205 0.0 0.0 0.00 0.00 0.00 72 1009.2
20260508214623 23 195 0.0 0.0 0.00 0.00 0.00 75 1009.3
20260508214120 23 203 0.0 0.0 0.00 0.00 0.00 73 1009.0
20260508213616 22 197 0.0 0.0 0.00 0.00 0.00 75 1009.1
20260508213113 22 167 0.0 0.0 0.00 0.00 0.00 77 1009.1
20260508212609 22 209 0.0 0.0 0.00 0.00 0.00 78 1008.9
20260508212106 21 199 0.0 0.0 0.00 0.00 0.00 81 1009.2
20260508211601 21 207 0.0 0.0 0.00 0.00 0.00 81 1009.4
20260508211057 21 174 0.0 0.0 0.00 0.00 0.00 85 1008.8
20260508210554 21 173 0.0 0.0 0.00 0.00 0.00 81 1010.0
20260508210051 22 242 0.0 0.0 0.00 0.00 0.00 77 1009.9
20260508205549 22 189 0.0 0.0 0.00 0.00 0.00 77 1010.2
20260508205045 22 189 0.0 0.0 0.00 0.00 0.00 76 1010.7
20260508204541 22 189 0.0 0.0 0.00 0.00 0.00 76 1010.7
20260508204037 22 189 0.0 0.0 0.00 0.00 0.00 76 1010.9
20260508203534 22 185 0.0 0.0 0.00 0.00 0.00 77 1011.1
20260508203030 22 175 0.0 0.0 0.00 0.00 0.00 75 1011.3
20260508202527 22 199 0.0 0.0 0.00 0.00 0.00 75 1011.2
20260508202024 22 194 0.0 0.0 0.00 0.00 0.00 76 1011.2
20260508201520 22 194 0.0 0.0 0.00 0.00 0.00 75 1011.2
20260508201017 22 190 0.0 0.0 0.00 0.00 0.00 74 1011.0
20260508200514 22 196 0.0 0.0 0.00 0.00 0.00 74 1011.0
20260508200010 23 189 0.0 0.0 0.00 0.00 0.00 74 1011.0
20260508195507 23 172 0.0 0.0 0.00 0.00 0.00 73 1010.9
20260508195003 23 185 0.0 0.0 0.00 0.00 0.00 75 1010.9
20260508194500 23 185 0.0 0.0 0.00 0.00 0.00 75 1010.8
20260508193957 23 184 0.0 0.0 0.00 0.00 0.00 71 1011.1
20260508193453 23 210 0.0 0.0 0.00 0.00 0.00 72 1011.2
20260508192950 23 202 0.0 0.0 0.00 0.00 0.00 70 1011.2
20260508192447 23 192 0.0 0.0 0.00 0.00 0.00 71 1011.2
20260508191943 23 197 0.0 0.0 0.00 0.00 0.00 71 1011.2
20260508191441 23 194 0.0 0.0 0.00 0.00 0.00 72 1011.3
20260508190937 23 180 1.6 3.2 0.00 0.00 0.00 71 1011.3
20260508190435 23 177 0.0 0.0 0.00 0.00 0.00 71 1011.3
20260508185931 23 192 0.0 0.0 0.00 0.00 0.00 71 1011.6
20260508185429 23 147 0.0 0.0 0.00 0.00 0.00 70 1011.6
20260508184926 23 173 0.0 1.6 0.00 0.00 0.00 70 1011.5
20260508184423 23 139 0.0 1.6 0.00 0.00 0.00 70 1011.5
20260508183919 23 197 0.0 0.0 0.00 0.00 0.00 69 1011.7
20260508183416 23 195 0.0 0.0 0.00 0.00 0.00 67 1011.8
20260508182911 24 195 0.0 0.0 0.00 0.00 0.00 67 1011.7
20260508182409 24 168 0.0 1.6 0.00 0.00 0.00 70 1011.5
20260508181904 24 168 0.0 0.0 0.00 0.00 0.00 67 1011.8
20260508181401 24 196 0.0 1.6 0.00 0.00 0.00 68 1011.9
20260508180858 23 201 0.0 0.0 0.00 0.00 0.00 67 1012.1
20260508180354 23 189 0.0 0.0 0.00 0.00 0.00 71 1012.1
20260508175845 23 189 0.0 0.0 0.00 0.00 0.00 69 1012.1
20260508175342 23 204 0.0 0.0 0.00 0.00 0.00 68 1012.3
20260508174840 23 178 0.0 0.0 0.00 0.00 0.00 67 1012.6
20260508174337 23 192 0.0 0.0 0.00 0.00 0.00 67 1012.5
20260508173834 23 198 0.0 0.0 0.00 0.00 0.00 70 1012.4
20260508173331 23 194 0.0 1.6 0.00 0.00 0.00 67 1012.8
20260508172827 22 172 0.0 1.6 0.00 0.00 0.00 71 1012.9
20260508172324 22 177 0.0 1.6 0.00 0.00 0.00 69 1012.9
20260508171820 22 182 0.0 0.0 0.00 0.00 0.00 72 1012.8
20260508171316 22 204 3.2 3.2 0.00 0.00 0.00 68 1012.8
20260508170813 22 255 1.6 1.6 0.00 0.00 0.00 68 1012.9
20260508170312 22 196 0.0 0.0 0.00 0.00 0.00 68 1013.0
20260508165808 22 204 0.0 0.0 0.00 0.00 0.00 69 1013.2
20260508165307 22 202 0.0 0.0 0.00 0.00 0.00 69 1013.4
20260508164801 22 196 0.0 0.0 0.00 0.00 0.00 70 1013.7
20260508164258 22 180 0.0 1.6 0.00 0.00 0.00 70 1013.7
20260508163756 22 185 0.0 0.0 0.00 0.00 0.00 70 1013.9
20260508163254 22 176 0.0 0.0 0.00 0.00 0.00 69 1014.0
20260508162749 22 191 0.0 0.0 0.00 0.00 0.00 69 1013.7
20260508162246 22 197 0.0 1.6 0.00 0.00 0.00 70 1014.0
20260508161743 22 199 0.0 0.0 0.00 0.00 0.00 68 1014.0
20260508161240 22 194 0.0 0.0 0.00 0.00 0.00 70 1014.1
20260508160738 22 201 0.0 0.0 0.00 0.00 0.00 69 1014.1
20260508160236 21 184 0.0 1.6 0.00 0.00 0.00 71 1014.3
20260508155727 21 4 0.0 0.0 0.00 0.00 0.00 70 1014.2
20260508155224 21 210 0.0 0.0 0.00 0.00 0.00 70 1014.3
20260508154720 21 198 0.0 0.0 0.00 0.00 0.00 72 1014.3
20260508154218 21 188 0.0 0.0 0.00 0.00 0.00 72 1014.6
20260508153715 21 179 0.0 1.6 0.00 0.00 0.00 72 1014.5
20260508153212 20 194 0.0 0.0 0.00 0.00 0.00 73 1014.4
20260508152708 20 179 0.0 0.0 0.00 0.00 0.00 72 1014.7
20260508152204 20 202 0.0 0.0 0.00 0.00 0.00 75 1014.7
20260508151701 20 202 0.0 0.0 0.00 0.00 0.00 72 1014.8
20260508151157 20 170 0.0 0.0 0.00 0.00 0.00 72 1014.8
20260508150654 20 185 0.0 0.0 0.00 0.00 0.00 73 1014.8
20260508150151 20 201 0.0 0.0 0.00 0.00 0.00 72 1014.7
20260508145647 20 183 0.0 0.0 0.00 0.00 0.00 72 1014.5
20260508145143 20 200 0.0 0.0 0.00 0.00 0.00 73 1014.5
20260508144641 20 203 0.0 0.0 0.00 0.00 0.00 72 1014.6
20260508144138 20 198 0.0 0.0 0.00 0.00 0.00 72 1014.4
20260508143635 19 199 0.0 0.0 0.00 0.00 0.00 74 1014.6
20260508143132 19 207 0.0 0.0 0.00 0.00 0.00 75 1014.6
20260508142628 19 196 0.0 0.0 0.00 0.00 0.00 74 1014.8
20260508142125 19 198 0.0 0.0 0.00 0.00 0.00 73 1014.7
20260508141622 19 196 0.0 0.0 0.00 0.00 0.00 74 1014.8
20260508141120 19 181 0.0 1.6 0.00 0.00 0.00 74 1015.1
20260508140617 18 186 0.0 0.0 0.00 0.00 0.00 76 1015.1
20260508140114 18 167 0.0 0.0 0.00 0.00 0.00 75 1014.9
20260508135609 18 176 0.0 0.0 0.00 0.00 0.00 76 1014.9
20260508135105 18 188 0.0 0.0 0.00 0.00 0.00 77 1014.8
20260508134602 18 197 0.0 0.0 0.00 0.00 0.00 77 1015.0
20260508134059 17 204 0.0 0.0 0.00 0.00 0.00 80 1015.0
20260508133555 17 189 0.0 0.0 0.00 0.00 0.00 83 1015.1
20260508133053 17 175 0.0 0.0 0.00 0.00 0.00 83 1014.7
20260508132545 17 185 0.0 0.0 0.00 0.00 0.00 84 1014.8
20260508132042 16 173 0.0 0.0 0.00 0.00 0.00 88 1014.8
20260508131537 16 194 0.0 0.0 0.00 0.00 0.00 93 1015.0
20260508131033 16 192 0.0 0.0 0.00 0.00 0.00 94 1014.9
20260508130531 15 192 0.0 0.0 0.00 0.00 0.00 94 1015.1
20260508130027 15 192 0.0 0.0 0.00 0.00 0.00 95 1015.3
20260508125523 15 192 0.0 0.0 0.00 0.00 0.00 95 1015.1
20260508125021 15 192 0.0 0.0 0.00 0.00 0.00 95 1015.3
20260508124519 15 193 0.0 0.0 0.00 0.00 0.00 94 1015.3
20260508124016 15 193 0.0 0.0 0.00 0.00 0.00 94 1015.3
20260508123514 15 193 0.0 0.0 0.00 0.00 0.00 94 1015.2
20260508123011 15 193 0.0 0.0 0.00 0.00 0.00 94 1015.0
20260508122508 15 193 0.0 0.0 0.00 0.00 0.00 94 1014.9
20260508122004 15 191 0.0 0.0 0.00 0.00 0.00 94 1014.8
20260508121503 15 191 0.0 0.0 0.00 0.00 0.00 94 1015.0
20260508121000 15 191 0.0 0.0 0.00 0.00 0.00 94 1015.0
20260508120458 15 191 0.0 0.0 0.00 0.00 0.00 93 1015.2
20260508115955 15 191 0.0 0.0 0.00 0.00 0.00 93 1015.1
20260508115453 15 191 0.0 0.0 0.00 0.00 0.00 93 1015.2
20260508114949 15 191 0.0 0.0 0.00 0.00 0.00 93 1015.2
20260508114446 15 191 0.0 0.0 0.00 0.00 0.00 93 1015.3
20260508113943 15 191 0.0 0.0 0.00 0.00 0.00 93 1015.1
20260508113440 15 191 0.0 0.0 0.00 0.00 0.00 93 1015.1
20260508112938 15 191 0.0 0.0 0.00 0.00 0.00 93 1015.2
20260508112434 15 190 0.0 0.0 0.00 0.00 0.00 93 1015.2
20260508111931 15 190 0.0 0.0 0.00 0.00 0.00 93 1015.3
20260508111428 15 198 0.0 0.0 0.00 0.00 0.00 93 1015.8
20260508110925 15 198 0.0 0.0 0.00 0.00 0.00 93 1015.8
20260508110423 15 198 0.0 0.0 0.00 0.00 0.00 93 1015.6
20260508105922 15 201 0.0 0.0 0.00 0.00 0.00 93 1015.7
20260508105419 15 202 0.0 0.0 0.00 0.00 0.00 93 1015.4
20260508104916 15 202 0.0 0.0 0.00 0.00 0.00 93 1015.2
20260508104413 14 202 0.0 0.0 0.00 0.00 0.00 92 1014.9
20260508103910 14 202 0.0 0.0 0.00 0.00 0.00 92 1014.8
20260508103407 14 203 0.0 0.0 0.00 0.00 0.00 92 1014.6
20260508102904 15 200 0.0 0.0 0.00 0.00 0.00 92 1014.0
20260508102403 15 200 0.0 0.0 0.00 0.00 0.00 92 1014.2
20260508101900 15 196 0.0 0.0 0.00 0.00 0.00 92 1014.0
20260508101356 15 196 0.0 0.0 0.00 0.00 0.00 92 1014.1
20260508100854 15 196 0.0 0.0 0.00 0.00 0.00 92 1014.2
20260508100353 15 195 0.0 0.0 0.00 0.00 0.00 92 1014.1
20260508095848 15 196 0.0 0.0 0.00 0.00 0.00 91 1014.4
20260508095346 15 196 0.0 0.0 0.00 0.00 0.00 91 1014.2
20260508094842 15 195 0.0 0.0 0.00 0.00 0.00 91 1014.2
20260508094340 15 199 0.0 0.0 0.00 0.00 0.00 91 1014.5
20260508093837 15 200 0.0 0.0 0.00 0.00 0.00 90 1014.5
20260508093334 15 200 0.0 0.0 0.00 0.00 0.00 90 1014.4
20260508092831 15 200 0.0 0.0 0.00 0.00 0.00 90 1014.5
20260508092329 15 196 0.0 0.0 0.00 0.00 0.00 90 1014.3
20260508091827 15 196 0.0 0.0 0.00 0.00 0.00 90 1014.5
20260508091323 16 204 0.0 0.0 0.00 0.00 0.00 90 1014.5
20260508090821 15 204 0.0 0.0 0.00 0.00 0.00 90 1014.4
20260508090320 15 204 0.0 0.0 0.00 0.00 0.00 90 1014.5
20260508085815 15 206 0.0 0.0 0.00 0.00 0.00 91 1014.3
20260508085312 15 202 0.0 0.0 0.00 0.00 0.00 91 1014.4
20260508084808 15 197 0.0 0.0 0.00 0.00 0.00 92 1014.2
20260508084306 15 195 0.0 0.0 0.00 0.00 0.00 92 1014.5
20260508083803 15 195 0.0 0.0 0.00 0.00 0.00 92 1014.7
20260508083301 15 195 0.0 0.0 0.00 0.00 0.00 92 1015.0
20260508082800 15 195 0.0 0.0 0.00 0.00 0.00 92 1015.4
20260508082258 15 196 0.0 0.0 0.00 0.00 0.00 91 1015.4
20260508081755 15 196 0.0 0.0 0.00 0.00 0.00 91 1015.3
20260508081252 15 196 0.0 0.0 0.00 0.00 0.00 91 1015.6
20260508080748 15 196 0.0 0.0 0.00 0.00 0.00 92 1015.7
20260508080247 15 196 0.0 0.0 0.00 0.00 0.00 92 1015.8
20260508075743 15 196 0.0 0.0 0.00 0.00 0.00 92 1015.7
20260508075240 15 196 0.0 0.0 0.00 0.00 0.00 92 1015.5
20260508074737 15 196 0.0 0.0 0.00 0.00 0.00 92 1015.7
20260508074235 15 196 0.0 0.0 0.00 0.00 0.00 92 1015.4
20260508073732 15 195 0.0 0.0 0.00 0.00 0.00 92 1015.5
20260508073230 15 195 0.0 0.0 0.00 0.00 0.00 92 1015.2
20260508072726 15 201 0.0 0.0 0.00 0.00 0.00 92 1015.4
20260508072223 15 198 0.0 0.0 0.00 0.00 0.00 92 1015.4
20260508071720 15 199 0.0 0.0 0.00 0.00 0.00 92 1015.5
20260508071218 15 199 0.0 0.0 0.00 0.00 0.00 92 1015.4
20260508070715 15 199 0.0 0.0 0.00 0.00 0.00 92 1015.4
20260508070214 15 199 0.0 0.0 0.00 0.00 0.00 92 1015.4
20260508065710 15 199 0.0 0.0 0.00 0.00 0.00 92 1015.6
20260508065209 15 199 0.0 0.0 0.00 0.00 0.00 92 1015.5
20260508064706 15 199 0.0 0.0 0.00 0.00 0.00 92 1015.5
20260508064204 15 199 0.0 0.0 0.00 0.00 0.00 92 1015.8
20260508063701 15 199 0.0 0.0 0.00 0.00 0.00 92 1016.0
20260508063159 15 199 0.0 0.0 0.00 0.00 0.00 92 1016.1
20260508062656 15 199 0.0 0.0 0.00 0.00 0.00 92 1015.9
20260508062153 15 199 0.0 0.0 0.00 0.00 0.00 92 1016.0
20260508061650 15 199 0.0 0.0 0.00 0.00 0.00 92 1016.0
20260508061148 15 199 0.0 0.0 0.00 0.00 0.00 92 1016.1
20260508060644 15 199 0.0 0.0 0.00 0.00 0.00 92 1016.1
20260508060142 15 199 0.0 0.0 0.00 0.00 0.00 92 1016.3
20260508055637 15 190 0.0 0.0 0.00 0.00 0.00 91 1015.9
20260508055134 15 198 0.0 0.0 0.00 0.00 0.00 91 1016.1
20260508054630 15 195 0.0 0.0 0.00 0.00 0.00 91 1016.0
20260508054128 15 195 0.0 0.0 0.00 0.00 0.00 91 1016.0